Find ARGOS

NORAD ID: 25634 Int'l Des: 1999-008 Owner: SMCTV Country: US operational
LEOCIRCULARRETROGRADESSO

リアルタイム位置

3D地球を読み込み中...

ARGOSについて

説明を読み込み中...

次回通過

Passes for default location (London). Set your location on the main map for personalized predictions.

高度履歴

Loading altitude history...

軌道要素

1 25634U 99008A 26132.19159184 .00000028 00000-0 32742-4 0 9990
2 25634 98.5104 99.6334 0010840 139.5095 220.6891 14.19982500409198
Epoch: May 12, 2026 • Age: 9 hours

現在のステータス

高度 831.9 km
速度 7.44 km/s
衛星直下点 15.20°N, 30.45°E
打ち上げ日 Feb 23, 1999
運用期間 27.2 years
タイプ other

技術仕様

分類 Payload
質量 2490.00 kg
乾燥質量 2490.00 kg
総質量 2490.00 kg
長さ 4.00 m
直径 2.00 m
スパン 16.00 m
形状 Box + 2 Pan
製造者 BOSB
バスタイプ P91-1
フェーズステータス In Orbit
所有者/国 SMCTV/US

Most Searched